[{"OBJECT_NAME":"SCD 1","OBJECT_ID":"1993-009B","EPOCH":"2026-09-11T17:12:39.243168","MEAN_MOTION":14.46148025,"ECCENTRICITY":0.00418605,"INCLINATION":24.9708,"RA_OF_ASC_NODE":33.2915,"ARG_OF_PERICENTER":334.1878,"MEAN_ANOMALY":162.2185,"EPHEMERIS_TYPE":0,"CLASSIFICATION_TYPE":"U","NORAD_CAT_ID":22490,"ELEMENT_SET_NO":999,"REV_AT_EPOCH":77365,"BSTAR":0.000032985648,"MEAN_MOTION_DOT":0.00000306,"MEAN_MOTION_DDOT":0},{"OBJECT_NAME":"TECHSAT 1B (GO-32)","OBJECT_ID":"1998-043D","EPOCH":"2026-09-11T22:54:30.388032","MEAN_MOTION":14.24442378,"ECCENTRICITY":0.0001168,"INCLINATION":99.0149,"RA_OF_ASC_NODE":249.9331,"ARG_OF_PERICENTER":19.5424,"MEAN_ANOMALY":340.5799,"EPHEMERIS_TYPE":0,"CLASSIFICATION_TYPE":"U","NORAD_CAT_ID":25397,"ELEMENT_SET_NO":999,"REV_AT_EPOCH":46368,"BSTAR":0.000029896,"MEAN_MOTION_DOT":2.2e-7,"MEAN_MOTION_DDOT":0},{"OBJECT_NAME":"SCD 2","OBJECT_ID":"1998-060A","EPOCH":"2026-09-12T05:29:20.078304","MEAN_MOTION":14.45551616,"ECCENTRICITY":0.0016562,"INCLINATION":24.9947,"RA_OF_ASC_NODE":255.3664,"ARG_OF_PERICENTER":323.8536,"MEAN_ANOMALY":128.4949,"EPHEMERIS_TYPE":0,"CLASSIFICATION_TYPE":"U","NORAD_CAT_ID":25504,"ELEMENT_SET_NO":999,"REV_AT_EPOCH":47293,"BSTAR":0.000041905,"MEAN_MOTION_DOT":0.00000332,"MEAN_MOTION_DDOT":0},{"OBJECT_NAME":"DLR-TUBSAT","OBJECT_ID":"1999-029B","EPOCH":"2026-09-12T05:34:48.565056","MEAN_MOTION":14.52444379,"ECCENTRICITY":0.0015379,"INCLINATION":98.6766,"RA_OF_ASC_NODE":253.6305,"ARG_OF_PERICENTER":85.977,"MEAN_ANOMALY":274.3182,"EPHEMERIS_TYPE":0,"CLASSIFICATION_TYPE":"U","NORAD_CAT_ID":25757,"ELEMENT_SET_NO":999,"REV_AT_EPOCH":44588,"BSTAR":0.000019198,"MEAN_MOTION_DOT":3e-7,"MEAN_MOTION_DDOT":0},{"OBJECT_NAME":"TERRA","OBJECT_ID":"1999-068A","EPOCH":"2026-09-12T04:42:12.379968","MEAN_MOTION":14.61158656,"ECCENTRICITY":0.0001557,"INCLINATION":97.9374,"RA_OF_ASC_NODE":301.258,"ARG_OF_PERICENTER":353.5066,"MEAN_ANOMALY":78.9055,"EPHEMERIS_TYPE":0,"CLASSIFICATION_TYPE":"U","NORAD_CAT_ID":25994,"ELEMENT_SET_NO":999,"REV_AT_EPOCH":42231,"BSTAR":0.000055701,"MEAN_MOTION_DOT":0.0000023,"MEAN_MOTION_DDOT":0},{"OBJECT_NAME":"MAROC-TUBSAT","OBJECT_ID":"2001-056D","EPOCH":"2026-09-12T01:09:14.568192","MEAN_MOTION":13.70265535,"ECCENTRICITY":0.0019056,"INCLINATION":99.8135,"RA_OF_ASC_NODE":73.5748,"ARG_OF_PERICENTER":281.1575,"MEAN_ANOMALY":191.0821,"EPHEMERIS_TYPE":0,"CLASSIFICATION_TYPE":"U","NORAD_CAT_ID":27004,"ELEMENT_SET_NO":999,"REV_AT_EPOCH":23808,"BSTAR":0.000011862,"MEAN_MOTION_DOT":-3.6e-7,"MEAN_MOTION_DDOT":0},{"OBJECT_NAME":"AQUA","OBJECT_ID":"2002-022A","EPOCH":"2026-09-12T05:39:22.159296","MEAN_MOTION":14.6219831,"ECCENTRICITY":0.0001638,"INCLINATION":98.4385,"RA_OF_ASC_NODE":226.3026,"ARG_OF_PERICENTER":70.0506,"MEAN_ANOMALY":346.6067,"EPHEMERIS_TYPE":0,"CLASSIFICATION_TYPE":"U","NORAD_CAT_ID":27424,"ELEMENT_SET_NO":999,"REV_AT_EPOCH":29599,"BSTAR":0.00010895,"MEAN_MOTION_DOT":0.00000499,"MEAN_MOTION_DDOT":0},{"OBJECT_NAME":"SHIYAN-1 (SY-1)","OBJECT_ID":"2004-012A","EPOCH":"2026-09-12T05:18:31.151232","MEAN_MOTION":15.35807819,"ECCENTRICITY":0.0006432,"INCLINATION":97.8647,"RA_OF_ASC_NODE":339.0561,"ARG_OF_PERICENTER":76.5282,"MEAN_ANOMALY":283.6677,"EPHEMERIS_TYPE":0,"CLASSIFICATION_TYPE":"U","NORAD_CAT_ID":28220,"ELEMENT_SET_NO":999,"REV_AT_EPOCH":22444,"BSTAR":0.00029677,"MEAN_MOTION_DOT":0.00010258,"MEAN_MOTION_DDOT":0},{"OBJECT_NAME":"AURA","OBJECT_ID":"2004-026A","EPOCH":"2026-09-12T03:31:20.611776","MEAN_MOTION":14.61437158,"ECCENTRICITY":0.0001551,"INCLINATION":98.3508,"RA_OF_ASC_NODE":212.3626,"ARG_OF_PERICENTER":70.5401,"MEAN_ANOMALY":289.5966,"EPHEMERIS_TYPE":0,"CLASSIFICATION_TYPE":"U","NORAD_CAT_ID":28376,"ELEMENT_SET_NO":999,"REV_AT_EPOCH":17891,"BSTAR":0.00011249,"MEAN_MOTION_DOT":0.00000509,"MEAN_MOTION_DDOT":0},{"OBJECT_NAME":"IRS-P5 (CARTOSAT-1)","OBJECT_ID":"2005-017A","EPOCH":"2026-09-12T01:05:05.807040","MEAN_MOTION":14.91234082,"ECCENTRICITY":0.0002516,"INCLINATION":97.5294,"RA_OF_ASC_NODE":274.1725,"ARG_OF_PERICENTER":106.3701,"MEAN_ANOMALY":253.7795,"EPHEMERIS_TYPE":0,"CLASSIFICATION_TYPE":"U","NORAD_CAT_ID":28649,"ELEMENT_SET_NO":999,"REV_AT_EPOCH":15676,"BSTAR":0.000081331,"MEAN_MOTION_DOT":0.00000756,"MEAN_MOTION_DDOT":0},{"OBJECT_NAME":"SINAH 1","OBJECT_ID":"2005-043D","EPOCH":"2026-09-12T04:26:37.932000","MEAN_MOTION":14.64207555,"ECCENTRICITY":0.0014523,"INCLINATION":98.2983,"RA_OF_ASC_NODE":30.0785,"ARG_OF_PERICENTER":9.156,"MEAN_ANOMALY":350.9904,"EPHEMERIS_TYPE":0,"CLASSIFICATION_TYPE":"U","NORAD_CAT_ID":28893,"ELEMENT_SET_NO":999,"REV_AT_EPOCH":11325,"BSTAR":0.000043463,"MEAN_MOTION_DOT":0.00000179,"MEAN_MOTION_DDOT":0},{"OBJECT_NAME":"RESURS-DK 1","OBJECT_ID":"2006-021A","EPOCH":"2026-09-12T00:26:53.437056","MEAN_MOTION":15.13503876,"ECCENTRICITY":0.0005502,"INCLINATION":69.9301,"RA_OF_ASC_NODE":114.7291,"ARG_OF_PERICENTER":216.505,"MEAN_ANOMALY":143.5742,"EPHEMERIS_TYPE":0,"CLASSIFICATION_TYPE":"U","NORAD_CAT_ID":29228,"ELEMENT_SET_NO":999,"REV_AT_EPOCH":11571,"BSTAR":0.000091188,"MEAN_MOTION_DOT":0.00001528,"MEAN_MOTION_DDOT":0},{"OBJECT_NAME":"ARIRANG-2 (KOMPSAT-2)","OBJECT_ID":"2006-031A","EPOCH":"2026-09-12T04:47:17.449728","MEAN_MOTION":14.6470327,"ECCENTRICITY":0.0014861,"INCLINATION":97.833,"RA_OF_ASC_NODE":75.46,"ARG_OF_PERICENTER":152.3087,"MEAN_ANOMALY":319.6163,"EPHEMERIS_TYPE":0,"CLASSIFICATION_TYPE":"U","NORAD_CAT_ID":29268,"ELEMENT_SET_NO":999,"REV_AT_EPOCH":7421,"BSTAR":0.000047386,"MEAN_MOTION_DOT":0.00000208,"MEAN_MOTION_DDOT":0},{"OBJECT_NAME":"LAPAN-TUBSAT","OBJECT_ID":"2007-001A","EPOCH":"2026-09-12T04:26:53.894400","MEAN_MOTION":14.86026959,"ECCENTRICITY":0.001065,"INCLINATION":98.1396,"RA_OF_ASC_NODE":256.4005,"ARG_OF_PERICENTER":263.0868,"MEAN_ANOMALY":96.9135,"EPHEMERIS_TYPE":0,"CLASSIFICATION_TYPE":"U","NORAD_CAT_ID":29709,"ELEMENT_SET_NO":999,"REV_AT_EPOCH":6407,"BSTAR":0.000074169,"MEAN_MOTION_DOT":0.00000591,"MEAN_MOTION_DDOT":0},{"OBJECT_NAME":"HAIYANG-1B","OBJECT_ID":"2007-010A","EPOCH":"2026-09-11T21:57:41.567616","MEAN_MOTION":14.3104507,"ECCENTRICITY":0.001256,"INCLINATION":98.3601,"RA_OF_ASC_NODE":233.4371,"ARG_OF_PERICENTER":308.3562,"MEAN_ANOMALY":51.6493,"EPHEMERIS_TYPE":0,"CLASSIFICATION_TYPE":"U","NORAD_CAT_ID":31113,"ELEMENT_SET_NO":999,"REV_AT_EPOCH":1304,"BSTAR":0.000034331,"MEAN_MOTION_DOT":4.8e-7,"MEAN_MOTION_DDOT":0},{"OBJECT_NAME":"COSMO-SKYMED 1","OBJECT_ID":"2007-023A","EPOCH":"2026-09-12T03:31:08.380992","MEAN_MOTION":14.97431913,"ECCENTRICITY":0.0001547,"INCLINATION":97.8832,"RA_OF_ASC_NODE":87.7566,"ARG_OF_PERICENTER":93.877,"MEAN_ANOMALY":266.2628,"EPHEMERIS_TYPE":0,"CLASSIFICATION_TYPE":"U","NORAD_CAT_ID":31598,"ELEMENT_SET_NO":999,"REV_AT_EPOCH":4280,"BSTAR":0.00017051,"MEAN_MOTION_DOT":0.00001924,"MEAN_MOTION_DDOT":0},{"OBJECT_NAME":"TERRASAR-X","OBJECT_ID":"2007-026A","EPOCH":"2026-09-11T20:59:09.621024","MEAN_MOTION":15.19150397,"ECCENTRICITY":0.0001869,"INCLINATION":97.4466,"RA_OF_ASC_NODE":261.3535,"ARG_OF_PERICENTER":82.4667,"MEAN_ANOMALY":277.6779,"EPHEMERIS_TYPE":0,"CLASSIFICATION_TYPE":"U","NORAD_CAT_ID":31698,"ELEMENT_SET_NO":999,"REV_AT_EPOCH":6638,"BSTAR":0.000014296,"MEAN_MOTION_DOT":0.00000233,"MEAN_MOTION_DDOT":0},{"OBJECT_NAME":"WORLDVIEW-1 (WV-1)","OBJECT_ID":"2007-041A","EPOCH":"2026-09-12T04:47:04.069824","MEAN_MOTION":15.24583376,"ECCENTRICITY":0.0001992,"INCLINATION":97.387,"RA_OF_ASC_NODE":13.699,"ARG_OF_PERICENTER":94.5433,"MEAN_ANOMALY":265.6033,"EPHEMERIS_TYPE":0,"CLASSIFICATION_TYPE":"U","NORAD_CAT_ID":32060,"ELEMENT_SET_NO":999,"REV_AT_EPOCH":5613,"BSTAR":0.00017738,"MEAN_MOTION_DOT":0.000043,"MEAN_MOTION_DDOT":0},{"OBJECT_NAME":"YAOGAN-3","OBJECT_ID":"2007-055A","EPOCH":"2026-09-12T04:10:23.689920","MEAN_MOTION":14.91054113,"ECCENTRICITY":0.0001816,"INCLINATION":97.8114,"RA_OF_ASC_NODE":284.1899,"ARG_OF_PERICENTER":92.5361,"MEAN_ANOMALY":267.6065,"EPHEMERIS_TYPE":0,"CLASSIFICATION_TYPE":"U","NORAD_CAT_ID":32289,"ELEMENT_SET_NO":999,"REV_AT_EPOCH":1883,"BSTAR":0.00016586,"MEAN_MOTION_DOT":0.00001586,"MEAN_MOTION_DDOT":0},{"OBJECT_NAME":"COSMO-SKYMED 2","OBJECT_ID":"2007-059A","EPOCH":"2026-09-12T04:22:17.322816","MEAN_MOTION":14.8214775,"ECCENTRICITY":0.0001334,"INCLINATION":97.8914,"RA_OF_ASC_NODE":77.5395,"ARG_OF_PERICENTER":89.7412,"MEAN_ANOMALY":270.3954,"EPHEMERIS_TYPE":0,"CLASSIFICATION_TYPE":"U","NORAD_CAT_ID":32376,"ELEMENT_SET_NO":999,"REV_AT_EPOCH":1489,"BSTAR":0.00003463,"MEAN_MOTION_DOT":0.00000223,"MEAN_MOTION_DDOT":0},{"OBJECT_NAME":"RADARSAT-2","OBJECT_ID":"2007-061A","EPOCH":"2026-09-12T05:19:01.251264","MEAN_MOTION":14.29981502,"ECCENTRICITY":0.0001259,"INCLINATION":98.5813,"RA_OF_ASC_NODE":260.9243,"ARG_OF_PERICENTER":84.3108,"MEAN_ANOMALY":275.8218,"EPHEMERIS_TYPE":0,"CLASSIFICATION_TYPE":"U","NORAD_CAT_ID":32382,"ELEMENT_SET_NO":999,"REV_AT_EPOCH":97839,"BSTAR":-0.000040764,"MEAN_MOTION_DOT":-0.00000149,"MEAN_MOTION_DDOT":0},{"OBJECT_NAME":"CARTOSAT-2A","OBJECT_ID":"2008-021A","EPOCH":"2026-09-12T05:40:13.785024","MEAN_MOTION":14.7932667,"ECCENTRICITY":0.0011516,"INCLINATION":97.7559,"RA_OF_ASC_NODE":300.9411,"ARG_OF_PERICENTER":181.3802,"MEAN_ANOMALY":178.738,"EPHEMERIS_TYPE":0,"CLASSIFICATION_TYPE":"U","NORAD_CAT_ID":32783,"ELEMENT_SET_NO":999,"REV_AT_EPOCH":99167,"BSTAR":0.00010564,"MEAN_MOTION_DOT":0.00000737,"MEAN_MOTION_DDOT":0},{"OBJECT_NAME":"HUANJING 1A (HJ-1A)","OBJECT_ID":"2008-041A","EPOCH":"2026-09-12T05:02:07.107072","MEAN_MOTION":14.84156333,"ECCENTRICITY":0.0017822,"INCLINATION":97.6771,"RA_OF_ASC_NODE":237.7338,"ARG_OF_PERICENTER":209.0966,"MEAN_ANOMALY":150.9257,"EPHEMERIS_TYPE":0,"CLASSIFICATION_TYPE":"U","NORAD_CAT_ID":33320,"ELEMENT_SET_NO":999,"REV_AT_EPOCH":97131,"BSTAR":0.000052548,"MEAN_MOTION_DOT":0.00000388,"MEAN_MOTION_DDOT":0}]